Macon, GA

5:42 PM EDT on September 24, 2017 (GMT -0400)
Middle Georgia Regional

Weather History for KMCN - September, 2013

Change the Weather History Date:

Saturday, September 28, 2013

  Actual Average Record
Temperature  
Mean Temperature 65 °F 71 °F  
Max Temperature 78 °F 83 °F 96 °F (1986)
Min Temperature 51 °F 59 °F 45 °F (1985)
Degree Days  
Heating Degree Days 0 1  
Month to date heating degree days 0 2  
Since 1 July heating degree days 0 2  
Cooling Degree Days 0 7  
Month to date cooling degree days 288 293  
Year to date cooling degree days 1763 2037  
Growing Degree Days 14 (Base 50)    
Moisture  
Dew Point 54 °F    
Average Humidity 70    
Maximum Humidity 100    
Minimum Humidity 40    
Precipitation  
Precipitation 0.00 in 0.11 in 3.01 in (1907)
Month to date precipitation 1.77 3.37  
Year to date precipitation 59.90 35.31  
Sea Level Pressure  
Sea Level Pressure 30.13 in    
Wind  
Wind Speed 6 mph (ENE)    
Max Wind Speed 20 mph    
Max Gust Speed 26 mph    
Visibility 10 miles    
Events      
T = Trace of Precipitation, MM = Missing Value Source: NWS Daily Summary

Daily Weather History Graph

Daily Weather History Graph

Search for Another Location

Airport or City:

Trip Planner

Search our weather history database for the weather conditions in past years. The results will help you decide how hot, cold, wet, or windy it might be!

Date:

Astronomy

Sep. 28, 2013 Rise Set
Actual Time 7:26 AM EDT 7:22 PM EDT
Civil Twilight 7:02 AM EDT 7:47 PM EDT
Nautical Twilight 6:33 AM EDT 8:15 PM EDT
Astronomical Twilight 6:04 AM EDT 8:44 PM EDT
Moon 1:30 AM EDT (9/28) 3:25 PM EDT (9/28)
Length of Visible Light 12h 45m
Length of Day
11h 56m
Last Quarter, 36% of the Moon is Illuminated
Sep 28
Last Quarter
Oct 4
New
Oct 11
First Quarter
Oct 18
Full
Oct 26
Last Quarter

Hourly Weather History & Observations

Time (EDT) Temp. Dew Point Humidity Pressure Visibility Wind Dir Wind Speed Gust Speed Precip Events Conditions
12:53 AM 57.0 °F 55.0 °F 93% 30.12 in 10.0 mi Calm Calm - 0.01 in   Clear
1:53 AM 55.9 °F 55.0 °F 97% 30.12 in 10.0 mi Calm Calm - N/A   Clear
2:53 AM 55.0 °F 54.0 °F 96% 30.11 in 10.0 mi NE 5.8 mph - N/A   Clear
3:53 AM 53.1 °F 52.0 °F 96% 30.10 in 10.0 mi Calm Calm - N/A   Clear
4:53 AM 53.1 °F 52.0 °F 96% 30.11 in 10.0 mi Calm Calm - N/A   Clear
5:53 AM 52.0 °F 52.0 °F 100% 30.12 in 8.0 mi Calm Calm - N/A   Clear
6:53 AM 54.0 °F 53.1 °F 97% 30.14 in 10.0 mi NE 4.6 mph - N/A   Clear
7:53 AM 53.1 °F 52.0 °F 96% 30.17 in 10.0 mi Calm Calm - N/A   Clear
8:53 AM 60.1 °F 57.0 °F 90% 30.18 in 10.0 mi ENE 8.1 mph - N/A   Clear
9:53 AM 64.9 °F 55.9 °F 73% 30.19 in 10.0 mi East 10.4 mph - N/A   Clear
10:53 AM 70.0 °F 55.0 °F 59% 30.20 in 10.0 mi East 11.5 mph - N/A   Clear
11:53 AM 73.0 °F 52.0 °F 48% 30.19 in 10.0 mi ENE 16.1 mph 20.7 mph N/A   Clear
12:53 PM 73.9 °F 50.0 °F 43% 30.18 in 10.0 mi East 16.1 mph - N/A   Clear
1:53 PM 75.9 °F 53.1 °F 45% 30.15 in 10.0 mi East 10.4 mph - N/A   Clear
2:53 PM 78.1 °F 53.1 °F 42% 30.13 in 10.0 mi NE 12.7 mph 21.9 mph N/A   Clear
3:53 PM 77.0 °F 53.1 °F 43% 30.11 in 10.0 mi ENE 10.4 mph 16.1 mph N/A   Clear
4:53 PM 77.0 °F 52.0 °F 42% 30.10 in 10.0 mi East 10.4 mph - N/A   Clear
5:53 PM 75.9 °F 53.1 °F 45% 30.10 in 10.0 mi NE 5.8 mph - N/A   Clear
6:53 PM 71.1 °F 55.0 °F 57% 30.10 in 10.0 mi ENE 5.8 mph - N/A   Clear
7:53 PM 64.0 °F 55.9 °F 75% 30.10 in 10.0 mi NE 4.6 mph - N/A   Clear
8:53 PM 61.0 °F 57.0 °F 87% 30.12 in 10.0 mi Calm Calm - N/A   Clear
9:53 PM 57.9 °F 57.0 °F 97% 30.12 in 10.0 mi Calm Calm - N/A   Clear
10:53 PM 57.0 °F 55.9 °F 96% 30.12 in 10.0 mi Calm Calm - N/A   Clear
11:53 PM 55.9 °F 55.9 °F 100% 30.12 in 10.0 mi Calm Calm - N/A   Clear